Location: Bon Acre
(42.6442°N, 73.5758°W)
Time: 07:12:05
(UTC+00:00)

Cosmos 2333 Rocket - Pass Details

Date: 14 December 2025
Orbit: 837 x 865 km, 70.8° (Epoch: 13 January)

Event Time Altitude Azimuth Distance (km) Brightness Sun altitude
Rises 23:17:22 0° 180° (S) 3,411 5.5 -20.5°
Reaches altitude 10° 23:19:56 10° 173° (S) 2,483 4.7 -21.0°
Enters shadow 23:24:53 39° 113° (ESE) 1,278 2.7 -21.8°
